Hourly Data Report for October 05, 2017

All times are specified in Local Standard Time (LST). Add 1 hour to adjust for Daylight Saving Time where and when it is observed.

LYNN LAKE
MANITOBA

56°51'50.000" N
101°04'34.000" W
356.60 m
5061645
71078
YYL

Download Data

Hourly Data (October 2017)
Hourly Data Report for October 5, 2017
Temp Definition
°C
Dew Point Temp Definition
°C
Rel Hum Definition
%
Wind Dir Definition
10's deg

Wind Spd Definition
km/h
Visibility Definition
km
Stn Press Definition
kPa
Hmdx Definition


Wind Chill Definition


Weather Definition


TIME
00:00 Legend Double Dagger -1.8 -3.8 86 26 13 16.1 97.44   -6 LegendNANA
01:00 Legend Double Dagger -2.2 -4.2 86 25 11 16.1 97.42   -6 LegendNANA
02:00 Legend Double Dagger -2.5 -4.3 88 25 15 16.1 97.42   -7 LegendNANA
03:00 Legend Double Dagger -2.2 -3.7 90 26 13 16.1 97.41   -7 LegendNANA
04:00 Legend Double Dagger -3.6 -4.2 96 24 11 16.1 97.40   -8 LegendNANA
05:00 Legend Double Dagger -3.7 -4.0 98 25 11 16.1 97.38   -8 LegendNANA
06:00 Legend Double Dagger -2.0 -2.3 98 26 13 16.1 97.36   -6 LegendNANA
07:00 Legend Double Dagger -1.5 -1.9 97 26 13 16.1 97.31   -6 LegendNANA
08:00 Legend Double Dagger 0.1 -0.9 93 26 13 16.1 97.28     LegendNANA
09:00 Legend Double Dagger 2.1 -0.4 84 27 13 16.1 97.23     LegendNANA
10:00 Legend Double Dagger 3.9 -0.8 72 28 21 16.1 97.21     LegendNANA
11:00 Legend Double Dagger 4.7 -1.2 66 28 21 16.1 97.15     LegendNANA
12:00 Legend Double Dagger 6.2 -1.1 60 27 18 16.1 97.08     LegendNANA
13:00 Legend Double Dagger 7.4 -2.6 49 28 17 16.1 97.02     LegendNANA
14:00 Legend Double Dagger 8.7 -2.9 44 29 15 16.1 96.93     LegendNANA
15:00 Legend Double Dagger 9.6 -2.8 42 27 13 16.1 96.86     LegendNANA
16:00 Legend Double Dagger 10.3 -1.5 44 29 13 16.1 96.78     LegendNANA
17:00 Legend Double Dagger 9.4 1.3 57 27 9 16.1 96.69     LegendNANA
18:00 Legend Double Dagger 7.7 1.8 66   0 16.1 96.62     LegendNANA
19:00 Legend Double Dagger 6.2 1.7 73 20 4 16.1 96.57     LegendNANA
20:00 Legend Double Dagger 3.4 1.5 87 24 11 16.1 96.52     LegendNANA
21:00 Legend Double Dagger 2.9 1.4 90 22 11 16.1 96.41     LegendNANA
22:00 Legend Double Dagger 3.3 2.3 93 24 5 16.1 96.33     LegendNANA
23:00 Legend Double Dagger 3.6 2.7 94 17 9 16.1 96.23     LegendNANA

Notes on Data Quality.

Legend

  • E = Estimated
  • M = Missing
  • NA = Not Available
  • ‡ = Partner data that is not subject to review by the National Climate Archives
Date modified: